Theta_e
314 314 314 314 314 314 313 312 312 314 315 315 316 316 315 315 315 315 315 314 314 314 314 314 313 314 314 314 312 312 314 313 316 319 322 321 309 313 317 316 319 317 317 317 316 323 327 326 329 331 336 345 354 359 358 357 360 364 367 365 361 364 365 363 365 364 360 361 363 361 360 363 360 359 356 357 360 352 351 349 345 347 347 348 349 350 351 352
313 314 314 313 313 313 313 313 313 314 314 314 315 314 314 314 314 315 315 315 315 314 315 314 313 314 314 312 312 315 315 315 320 322 327 315 312 316 318 319 319 317 314 315 317 322 327 326 328 332 335 348 360 360 360 359 361 366 366 364 364 367 365 361 363 363 360 360 362 360 360 360 360 358 354 357 360 353 351 349 347 350 349 350 349 350 351 351
313 313 312 312 313 314 314 314 314 314 313 313 313 313 314 314 315 315 315 315 315 315 315 314 315 315 313 311 314 317 316 319 329 336 330 316 317 314 318 321 319 318 314 314 316 322 328 327 329 332 334 352 364 360 360 362 361 364 364 368 368 365 364 361 362 362 360 360 360 358 359 360 360 355 353 358 358 353 351 348 351 353 351 350 349 350 352 352
313 312 313 312 313 313 313 313 313 313 312 313 313 313 314 314 315 315 315 315 314 315 316 315 316 314 312 311 315 318 318 327 338 334 325 321 320 314 319 322 319 319 317 315 315 320 326 325 328 329 335 357 364 358 359 361 362 363 365 371 368 362 365 363 361 363 360 361 361 359 360 357 358 358 357 356 357 355 350 348 351 353 352 351 350 350 351 352
312 312 313 313 312 312 313 313 313 313 313 314 314 314 314 314 315 314 314 315 314 316 315 315 316 313 311 312 316 319 322 332 332 329 323 320 319 315 320 322 322 320 317 316 314 318 321 320 324 324 341 367 367 361 361 359 359 363 365 365 362 361 366 364 361 363 363 363 361 361 361 356 357 361 360 356 358 356 347 347 350 350 351 350 350 350 351 352
312 312 313 313 312 312 312 313 313 313 314 314 314 314 315 314 314 314 314 314 315 315 314 315 314 312 311 313 317 320 326 325 323 326 324 320 320 317 318 321 322 319 315 315 313 317 319 320 324 326 349 373 369 362 361 359 359 367 368 360 360 361 364 364 360 361 363 364 361 361 359 359 362 362 364 362 358 354 345 347 349 349 351 350 351 350 350 351
312 312 312 312 312 312 312 312 312 312 313 313 313 314 314 314 314 314 314 314 314 313 313 313 313 312 312 315 321 324 329 328 320 325 327 322 321 319 318 321 321 317 313 313 313 317 319 321 327 329 352 371 366 362 361 360 359 369 373 361 359 362 362 363 360 360 363 364 362 361 358 362 366 360 363 364 355 348 344 346 348 350 350 350 351 350 350 351
311 312 312 312 312 312 312 312 312 312 313 313 313 313 313 314 314 314 314 314 314 312 312 312 312 312 313 318 326 329 332 334 326 328 327 321 322 320 320 321 319 315 312 314 313 317 320 324 328 328 353 369 366 364 361 363 364 367 372 362 359 361 361 360 359 360 363 364 362 361 363 365 366 361 360 359 349 345 344 345 347 349 349 350 350 350 350 350
312 312 311 312 312 312 312 312 312 312 313 313 313 313 314 315 314 315 315 315 313 312 311 311 311 313 316 320 327 330 331 331 329 329 324 321 321 320 322 320 317 314 313 315 313 318 322 326 330 332 356 367 362 362 358 365 369 365 366 361 360 361 359 360 360 360 362 363 361 361 362 362 364 363 361 357 348 343 343 343 346 348 348 349 349 349 350 350
312 312 312 312 312 312 312 312 313 313 313 313 313 314 315 315 314 314 314 313 312 311 311 310 310 312 318 322 328 329 329 328 329 327 322 320 318 320 322 318 317 315 314 316 315 319 322 325 331 332 353 364 359 358 354 359 364 360 362 361 362 362 359 362 362 360 360 361 362 361 358 358 361 362 360 356 348 341 343 342 343 346 347 347 348 347 348 349
312 312 312 312 312 312 312 313 313 312 313 313 314 315 315 314 312 312 311 311 311 310 311 311 311 314 318 325 329 325 326 329 327 324 321 318 316 318 319 317 316 313 313 318 318 321 322 324 328 327 347 361 358 359 356 356 360 359 361 363 363 362 361 362 363 362 361 362 360 359 359 359 357 358 357 353 346 341 342 342 342 344 346 346 347 346 346 348
313 313 313 312 312 312 312 312 313 312 313 313 314 316 315 313 312 311 311 311 311 311 312 311 312 316 321 328 329 321 319 324 323 323 321 317 315 314 315 314 313 311 314 319 320 323 324 325 326 328 343 354 356 363 361 357 359 357 358 364 365 364 364 362 361 360 361 362 358 359 365 362 359 357 355 350 343 343 341 341 343 342 345 345 346 346 346 346
313 314 314 313 312 312 312 312 312 312 313 313 315 316 315 313 312 311 311 312 312 312 312 312 314 316 323 332 328 317 316 320 321 323 321 317 316 313 313 314 312 311 313 318 321 324 324 325 328 329 340 352 356 360 360 355 358 360 358 362 366 366 368 362 358 359 361 359 357 364 363 359 363 359 355 353 342 343 343 342 343 341 344 345 345 346 345 344
313 314 314 314 312 311 312 312 312 312 313 313 314 316 315 314 314 313 312 312 312 313 313 313 314 318 328 333 320 314 321 323 322 323 321 317 316 314 314 315 315 313 314 318 323 324 324 326 325 324 338 354 356 356 360 359 361 366 360 362 368 363 363 362 357 361 366 358 358 365 356 354 364 356 354 358 347 342 344 342 342 341 344 345 345 345 344 343
313 315 315 314 312 311 312 312 312 312 313 313 314 315 316 316 316 316 314 312 312 313 314 315 316 321 332 333 320 319 321 320 321 321 320 319 318 316 315 316 317 317 316 318 320 321 323 325 323 330 346 353 354 357 364 366 367 367 358 362 369 361 361 364 359 361 366 359 358 360 355 359 366 354 353 358 348 342 345 342 341 342 345 345 343 344 343 343
313 315 315 315 313 312 312 312 312 313 313 313 313 315 316 316 317 320 318 313 313 313 315 321 320 321 331 332 323 322 320 318 319 318 319 321 320 318 316 317 318 319 319 319 320 321 324 327 325 335 349 352 353 358 364 365 366 367 360 358 362 361 362 363 361 361 362 362 360 361 366 369 365 357 355 354 347 343 345 342 341 343 344 343 343 342 343 344
313 314 316 315 313 312 312 312 312 313 314 313 313 314 315 317 319 323 321 314 313 315 316 320 322 322 329 330 324 326 324 320 319 318 319 320 322 321 317 316 318 319 321 321 323 323 325 328 328 330 338 349 354 357 357 356 357 362 363 360 360 362 362 359 363 362 360 366 366 365 374 371 361 360 359 355 350 346 345 342 342 343 343 342 343 343 344 345
312 314 315 315 314 312 311 312 312 314 313 313 314 314 315 318 323 324 323 318 318 322 322 323 324 324 325 327 328 328 324 321 320 321 321 321 324 323 318 317 320 321 322 324 324 326 326 325 330 329 330 346 357 354 351 353 355 355 357 357 358 362 362 360 364 364 362 369 369 366 370 369 364 362 359 355 353 350 345 344 344 344 344 344 343 343 344 345
312 314 315 315 314 312 311 312 312 313 313 314 314 314 316 322 327 326 323 322 324 329 330 330 331 327 322 324 327 325 324 322 321 323 323 324 325 324 322 320 322 324 324 326 325 325 326 323 328 328 325 338 353 352 349 355 358 357 357 356 356 359 362 364 366 367 367 369 370 368 367 368 368 365 361 359 357 355 346 345 347 345 344 344 343 343 344 345
312 313 314 315 314 313 312 312 312 312 313 314 314 315 321 325 329 330 327 327 329 325 322 328 331 329 324 323 322 324 325 323 324 325 324 324 324 323 323 322 322 323 324 326 325 324 324 323 325 328 326 329 338 345 350 352 355 359 359 357 358 359 360 367 368 367 369 368 366 366 365 367 368 365 363 361 361 361 352 345 345 347 346 345 343 343 345 345
312 313 314 315 314 313 312 311 312 312 313 313 314 318 322 322 324 327 328 330 328 323 321 324 327 326 324 322 322 323 323 323 324 324 323 324 324 323 323 321 321 322 323 323 322 322 322 321 323 326 327 326 325 335 348 351 352 356 356 355 356 359 362 366 367 365 367 367 363 363 365 365 365 365 363 362 364 366 362 352 344 345 346 346 345 343 345 345
311 313 314 314 314 314 312 312 312 312 313 314 315 318 319 319 321 321 322 324 323 323 326 326 324 324 324 323 323 321 320 321 321 322 324 323 323 324 323 320 320 321 321 319 319 321 320 319 322 322 323 325 321 331 348 351 351 353 355 355 354 359 364 363 364 362 360 363 363 363 367 365 363 363 362 363 365 365 364 364 359 351 346 347 346 343 344 344
312 313 314 315 315 313 312 312 312 313 315 316 316 317 320 320 321 320 320 322 322 323 326 327 326 326 326 325 322 319 320 320 320 323 323 323 323 324 322 319 321 321 318 319 319 318 317 318 321 319 320 322 321 332 348 348 348 354 354 351 352 359 359 357 362 359 355 361 363 364 367 367 363 362 362 362 364 365 364 367 370 365 353 347 345 344 344 344
312 313 314 315 314 313 312 312 313 316 317 316 315 318 321 321 321 320 320 323 324 323 324 326 327 327 327 325 320 319 321 320 321 324 323 323 324 323 322 321 320 320 320 320 319 318 317 319 320 319 320 321 320 333 348 346 345 351 354 352 355 361 358 359 361 358 357 360 363 364 361 361 364 363 364 366 366 368 368 365 369 371 365 354 346 345 345 343
312 313 314 314 315 314 311 312 317 318 317 315 317 320 321 322 322 321 322 326 328 327 323 323 322 322 323 321 318 320 320 320 321 323 324 322 323 323 323 322 320 322 322 319 318 318 317 318 320 319 320 320 320 331 344 343 339 343 350 357 361 361 361 363 360 357 358 356 360 363 354 354 363 365 365 367 367 368 368 367 368 370 367 357 347 345 345 343
312 313 314 315 316 313 313 319 320 316 316 317 320 322 321 324 324 322 324 330 331 329 320 317 316 317 319 318 318 320 320 321 321 322 323 323 323 323 322 323 323 323 322 322 319 318 318 318 319 320 321 321 320 328 341 340 335 337 347 357 361 361 363 363 359 355 354 355 360 362 356 354 358 363 365 365 367 368 367 369 370 369 366 358 349 347 346 343
312 313 313 315 316 314 317 322 318 314 318 321 321 322 323 325 324 322 328 329 326 323 317 316 316 317 319 318 319 322 322 323 323 321 324 324 322 321 322 323 323 321 322 321 317 318 320 318 318 320 320 319 321 328 338 340 336 339 349 359 362 363 363 361 359 357 357 358 360 361 361 356 352 360 366 365 367 368 367 368 368 367 364 361 355 347 344 343
312 313 314 315 316 315 316 317 315 316 321 321 319 322 324 324 324 324 331 327 320 316 319 318 317 318 318 319 320 324 325 325 325 324 323 323 322 321 321 322 322 322 323 321 316 320 322 319 318 321 319 320 325 332 338 341 345 348 354 360 361 362 362 360 358 358 358 356 355 358 360 355 351 359 367 367 366 367 367 366 364 365 362 361 358 349 344 343
313 314 314 315 316 316 316 316 317 319 322 319 317 322 323 323 327 330 333 331 321 315 320 318 318 319 318 319 320 321 323 324 327 325 323 322 321 321 322 323 323 323 324 322 320 322 322 322 321 319 319 322 329 336 336 342 352 354 355 358 360 360 359 358 358 357 354 352 352 354 356 354 352 358 363 364 363 365 369 365 361 362 360 360 360 351 345 344
313 314 314 315 315 317 318 317 318 320 321 318 316 321 323 325 333 334 333 332 321 315 319 316 318 320 318 319 320 322 323 324 326 324 322 322 321 321 323 324 323 324 326 323 323 323 321 326 328 323 323 325 329 334 333 342 351 353 359 358 354 357 359 357 357 356 352 351 351 349 353 355 352 355 360 362 364 366 370 368 363 361 358 358 359 352 346 345
314 314 314 315 316 316 318 319 318 319 318 316 315 320 326 333 340 334 332 328 316 315 319 318 318 318 318 319 320 321 322 323 325 323 323 324 322 322 322 324 324 324 327 324 324 325 322 325 328 329 330 327 330 329 331 345 350 351 362 357 348 351 356 354 351 351 350 350 349 348 352 354 350 355 360 363 367 368 369 369 363 360 358 357 357 354 348 346
314 314 315 315 316 315 318 320 318 316 316 315 316 323 335 342 340 333 331 325 317 318 318 319 319 316 318 319 319 321 321 323 325 324 325 324 323 324 322 325 326 321 322 323 322 324 325 326 326 328 332 330 332 328 326 340 349 352 356 349 346 348 348 348 347 349 349 347 349 351 352 351 352 360 364 360 363 367 367 368 362 358 357 355 355 354 350 347
314 315 315 315 316 315 316 317 314 315 315 315 320 330 340 338 334 334 332 323 318 318 318 320 320 318 320 319 319 321 320 323 325 324 325 323 323 325 322 324 326 321 320 322 319 318 321 325 327 327 328 329 333 328 320 328 343 351 347 340 344 347 343 345 346 346 346 346 349 352 351 351 353 362 365 358 357 361 364 366 362 357 355 354 353 352 350 348
315 316 315 316 315 314 315 315 314 315 315 316 326 338 337 332 333 333 327 320 317 318 318 318 319 319 320 320 321 322 320 322 325 324 324 323 321 323 322 322 323 322 322 319 317 317 316 320 325 326 327 328 331 331 325 327 335 343 347 343 341 340 337 338 341 343 346 349 350 349 349 351 354 361 364 357 353 355 358 361 361 357 355 353 352 352 350 348
316 316 317 316 314 315 316 316 315 315 314 322 337 342 334 329 331 326 320 318 317 318 317 318 319 317 317 320 322 323 322 321 323 322 323 323 321 322 324 323 323 323 322 318 318 319 315 318 327 327 328 328 328 329 328 326 326 330 337 336 333 336 335 333 337 343 345 349 351 347 350 359 363 366 365 359 355 353 354 357 359 359 358 355 353 353 351 348
318 317 319 318 316 317 316 317 316 314 318 333 343 340 334 330 329 325 321 320 317 316 316 317 319 316 314 318 320 321 323 322 322 323 322 323 324 323 323 324 323 323 322 320 320 319 314 318 326 326 327 329 329 328 326 326 328 327 323 324 330 336 335 329 331 337 340 345 349 345 349 359 359 361 364 363 359 356 355 356 357 359 359 358 355 354 354 352
320 319 321 321 319 318 318 319 318 317 325 338 340 339 337 331 328 325 324 321 316 317 317 316 318 316 312 315 318 319 322 320 320 322 320 321 325 323 322 324 322 322 323 322 321 321 317 317 324 326 326 328 328 327 326 326 330 325 317 321 328 328 333 335 332 332 333 341 347 343 346 351 347 349 362 367 363 359 358 358 358 359 360 360 357 355 356 355
322 322 323 322 318 319 322 321 320 322 328 333 337 341 338 330 327 325 321 318 316 317 318 314 316 319 315 314 316 319 319 317 317 320 319 319 324 324 321 323 322 323 323 321 321 323 320 315 320 327 326 326 327 324 323 323 326 324 320 324 324 318 324 328 326 329 330 336 347 345 345 350 346 347 357 363 363 361 359 359 359 359 359 359 357 355 356 356
325 325 325 322 317 320 323 322 323 326 327 330 335 338 332 327 327 325 321 318 317 318 318 316 316 320 319 316 317 318 319 316 316 320 320 321 325 326 323 322 322 321 321 321 321 323 324 317 316 324 324 324 324 321 319 320 322 323 322 323 321 319 323 322 320 327 330 335 345 344 343 349 351 356 360 360 362 362 359 360 359 358 357 358 358 357 356 357
324 324 325 321 318 323 324 323 324 326 327 332 335 332 325 324 323 321 321 317 318 318 317 318 318 319 319 319 319 318 318 319 318 320 321 322 323 323 322 321 320 320 320 322 322 323 328 321 314 321 326 321 319 320 322 321 320 319 316 315 316 317 321 320 320 325 329 338 346 345 345 349 356 364 364 360 361 360 360 361 360 357 357 357 359 359 358 359
326 326 328 323 320 325 324 323 325 328 329 330 329 324 322 324 321 318 320 317 318 319 317 318 319 319 320 320 320 318 319 320 320 320 320 320 320 320 320 319 320 321 321 324 324 322 326 324 316 318 320 317 320 324 324 323 322 321 318 317 316 316 315 315 319 323 325 335 342 343 345 349 358 364 361 358 360 358 358 361 359 358 356 355 357 358 358 361
330 329 331 325 322 325 323 324 328 327 326 326 325 321 323 327 321 316 319 318 318 318 317 319 319 319 321 320 319 320 320 320 321 321 319 319 321 320 319 320 320 322 323 323 324 324 327 328 321 319 320 319 322 326 324 323 324 322 321 321 319 320 318 313 317 322 318 323 335 343 345 348 357 363 359 361 363 361 360 361 359 360 357 355 357 355 353 355
330 327 329 322 323 324 321 328 333 328 324 322 322 320 321 323 318 316 319 320 319 319 319 320 319 319 320 320 320 320 320 320 320 321 321 321 322 320 320 321 320 322 325 322 324 327 329 328 323 325 334 335 330 330 330 326 326 324 323 323 320 319 319 317 324 329 319 318 335 347 346 348 358 363 358 358 362 362 363 363 362 363 360 357 358 357 355 357
328 327 329 323 324 325 323 329 333 329 327 324 321 321 321 320 318 318 320 319 320 319 318 319 320 319 320 320 321 321 321 320 318 320 322 321 322 324 324 322 320 322 323 322 327 327 324 329 331 329 333 336 333 331 329 326 326 325 325 330 330 328 324 320 327 331 320 319 337 349 346 347 358 362 357 355 358 358 358 358 361 365 364 362 363 364 365 367
329 331 333 328 325 323 325 330 328 326 326 322 320 322 322 320 319 320 320 320 321 318 317 319 319 319 320 320 321 320 321 321 319 322 324 322 322 322 322 322 321 323 327 332 335 329 324 333 340 333 329 327 326 327 324 323 326 329 332 338 340 341 338 322 320 330 331 334 347 354 351 353 359 357 354 355 357 357 356 356 358 361 361 361 364 365 364 364
330 332 334 332 329 324 325 327 322 322 323 321 324 326 322 320 319 319 319 318 319 318 317 318 318 318 320 321 322 322 322 322 323 324 324 323 322 319 320 322 321 330 342 342 338 336 334 336 341 343 338 330 329 336 334 328 328 330 336 343 344 347 349 338 332 339 343 345 351 353 353 355 356 355 354 356 356 357 358 357 357 358 357 358 361 360 358 358
330 332 332 330 333 332 330 328 323 322 322 322 327 328 322 320 319 317 316 317 317 318 318 319 318 317 319 322 323 324 325 325 325 325 323 324 324 321 323 322 321 336 347 338 333 341 339 329 328 334 333 326 328 333 329 328 331 332 335 341 344 347 349 348 346 346 347 348 351 353 353 352 353 355 355 355 355 357 358 358 356 356 355 357 357 357 356 356
332 332 332 330 334 336 332 332 329 326 324 324 328 327 321 321 321 318 317 319 318 317 320 322 320 317 319 323 324 325 330 331 328 328 327 327 327 325 326 325 323 332 337 327 328 337 334 326 323 322 322 324 327 329 330 333 336 336 337 338 341 344 344 345 346 349 350 350 351 350 350 350 352 353 353 353 354 355 355 356 355 354 355 355 356 356 356 355
335 333 335 333 334 335 332 332 330 326 326 330 332 327 321 320 321 319 318 322 322 318 319 321 320 319 320 327 331 331 332 331 327 327 328 327 327 326 327 329 327 327 327 323 325 331 332 330 328 323 323 326 328 331 336 336 334 335 337 337 338 341 342 342 344 345 347 347 348 349 350 349 350 351 351 350 349 349 349 350 351 353 356 357 358 359 357 356
334 334 335 335 339 340 334 331 329 326 328 332 330 325 322 320 321 321 319 321 322 319 318 319 319 320 320 326 334 332 331 333 328 326 328 326 326 328 328 328 327 326 325 323 325 330 328 327 331 332 329 327 327 330 334 336 335 335 336 338 339 339 341 342 343 344 346 345 345 348 349 349 350 350 348 346 345 346 345 345 347 349 352 355 357 358 358 357
325 329 330 334 345 348 337 330 328 326 327 332 329 324 323 321 321 323 321 320 320 317 319 319 320 325 325 325 328 326 326 330 327 323 324 322 321 325 328 328 326 325 325 325 328 333 329 327 333 337 329 323 322 326 331 334 332 332 334 337 339 339 339 341 342 344 345 344 345 348 349 350 350 348 346 344 344 345 346 347 348 348 349 351 353 354 355 355
321 327 329 333 346 350 339 330 329 328 327 328 326 323 323 322 322 326 326 323 320 317 318 318 320 328 330 327 326 324 321 321 321 319 318 318 317 319 323 328 326 321 324 328 329 332 334 331 329 329 325 322 322 324 328 330 332 334 336 336 337 339 339 339 341 342 342 344 347 348 347 346 347 347 346 345 345 346 349 349 348 349 348 348 349 351 352 352
Wind_Speed
14 13 13 13 12 11 10 10 9 8 8 9 10 10 11 11 11 11 11 11 11 12 12 12 11 9 9 9 9 9 11 12 11 8 9 8 7 12 11 11 12 12 12 7 7 7 6 9 10 11 9 5 3 1 3 3 1 1 1 1 2 1 0 0 1 2 3 3 5 5 5 4 5 8 3 2 4 9 12 9 11 13 13 14 20 30 31 30
14 14 14 14 13 12 11 10 9 8 8 9 10 11 11 11 12 12 12 12 12 12 11 11 11 10 9 8 8 8 13 14 11 10 11 7 5 16 15 9 10 12 14 12 11 11 8 7 8 8 4 2 2 2 3 2 1 1 1 1 1 1 2 2 2 4 3 1 1 4 4 5 6 11 7 6 8 10 12 11 14 16 15 16 23 28 28 30
16 16 15 14 14 13 11 11 10 10 10 10 10 11 11 12 12 12 12 12 12 12 11 11 10 9 9 7 6 9 12 11 6 7 5 5 11 17 16 11 10 10 13 12 14 16 10 5 7 6 3 2 1 3 2 1 1 0 0 1 2 3 3 4 5 7 4 1 3 3 4 5 7 10 8 8 12 12 12 13 16 18 18 17 19 24 28 27
17 17 16 16 15 14 14 13 12 12 12 11 11 11 11 11 12 12 12 12 12 12 11 10 9 8 8 6 6 9 9 5 2 4 2 3 11 17 18 14 11 10 9 8 11 15 10 5 4 5 5 3 1 3 3 1 2 1 2 2 2 3 3 3 5 8 7 3 6 2 3 7 7 5 8 10 11 9 10 14 18 21 22 19 18 22 26 24
17 17 17 17 16 16 15 14 13 13 13 13 13 12 12 11 11 12 12 13 12 12 11 9 9 7 6 5 4 7 5 2 2 5 2 4 7 15 18 15 13 11 9 8 9 10 9 6 3 4 4 3 3 3 3 3 3 1 2 3 2 3 1 3 3 6 7 5 7 6 5 5 8 1 6 11 9 6 9 14 19 21 21 20 19 20 22 22
18 18 17 17 17 16 15 14 14 14 13 14 14 14 14 13 12 12 12 12 12 11 11 9 8 6 6 5 3 4 2 1 4 5 2 5 7 12 17 16 13 12 11 10 8 6 5 5 3 4 2 3 3 4 5 5 4 1 2 3 3 3 0 4 5 5 4 7 8 6 7 3 4 1 4 8 7 6 12 17 20 19 21 23 21 19 18 17
19 19 18 18 17 17 16 15 15 15 15 15 15 15 14 14 13 12 12 12 11 11 10 8 7 6 5 4 1 2 1 4 7 6 5 4 6 11 16 16 14 13 13 12 9 6 4 4 4 4 3 3 3 4 5 5 3 2 2 1 2 1 3 5 6 6 4 7 6 3 2 0 1 1 1 6 8 12 17 19 21 21 23 23 19 17 17 17
20 20 19 19 18 18 17 16 16 16 17 16 16 16 15 14 13 12 12 11 11 10 8 7 6 5 6 4 1 2 1 6 6 9 8 5 7 13 17 16 16 15 15 15 12 8 5 5 5 5 2 3 3 4 5 4 2 3 1 2 1 2 6 7 6 7 5 5 2 2 1 2 3 2 2 8 15 17 18 20 21 21 21 19 17 17 16 17
21 21 20 19 19 18 18 17 17 17 17 17 17 16 15 13 12 11 10 10 9 8 7 6 5 4 6 4 0 2 3 5 5 8 8 6 8 14 18 17 19 18 15 16 14 8 5 4 4 4 3 3 4 4 5 3 1 3 3 3 3 4 8 7 6 6 5 3 2 3 3 6 3 5 5 2 15 19 18 20 21 20 19 17 16 17 16 15
21 21 21 20 19 18 18 18 18 18 17 17 17 16 14 12 11 10 9 9 8 7 6 5 4 4 5 3 1 2 3 3 5 7 6 6 9 15 18 17 20 20 14 13 13 9 6 5 4 2 3 3 3 3 4 3 3 4 4 3 4 6 7 5 6 6 5 4 6 5 2 7 4 6 3 3 10 20 18 18 19 18 18 17 16 15 17 17
22 21 21 20 19 18 18 18 18 17 17 18 18 16 13 11 10 10 9 9 8 7 6 5 4 3 3 3 3 1 4 4 2 5 6 6 10 15 19 18 20 22 15 9 12 16 13 12 9 3 0 2 2 1 2 5 8 6 4 3 5 7 6 5 6 5 4 4 9 6 3 7 9 0 7 9 12 20 19 17 16 15 14 14 14 12 14 16
22 22 21 20 19 18 18 18 18 17 18 19 18 15 12 10 9 9 9 9 9 8 6 4 3 3 4 2 3 6 5 4 2 4 5 5 5 10 14 15 18 22 17 9 12 21 19 17 10 3 2 3 3 1 4 8 9 6 5 3 3 5 6 6 5 4 3 3 6 5 4 4 6 6 11 12 16 18 17 17 14 13 12 11 12 10 10 14
22 22 21 20 18 18 18 18 18 17 17 18 18 15 12 10 9 9 9 9 9 8 6 3 2 2 4 1 7 8 6 6 8 9 9 5 4 6 11 12 15 18 17 14 14 17 17 16 9 4 4 4 2 2 5 7 5 4 4 1 1 2 3 5 3 4 4 2 2 3 3 2 5 6 5 5 17 20 15 15 12 10 10 10 11 9 8 11
22 22 20 19 18 18 17 18 18 17 17 17 17 15 12 10 9 8 7 7 7 6 4 2 2 2 3 5 11 8 9 11 10 12 15 9 6 8 10 11 13 15 17 17 16 14 17 19 12 4 3 5 5 5 4 5 2 2 3 2 1 1 1 3 1 3 5 1 3 4 4 5 2 9 6 5 10 20 15 14 12 10 10 10 10 8 6 9
22 21 20 19 18 17 17 18 18 17 17 16 16 13 11 9 8 7 6 5 5 3 2 2 2 1 1 7 11 7 6 7 9 14 17 14 10 8 12 15 15 18 18 19 19 17 17 17 8 3 3 5 8 6 2 3 2 2 2 2 2 1 1 4 1 1 5 0 4 5 3 3 1 8 12 7 9 17 14 13 11 10 12 10 8 7 7 9
22 21 19 18 17 17 17 17 17 17 17 17 16 13 11 9 7 7 6 4 3 1 2 3 1 1 1 5 7 7 5 7 10 12 14 17 15 10 15 17 15 18 20 21 22 19 14 8 1 5 6 6 7 6 3 3 2 1 2 2 1 1 2 3 1 1 5 2 3 1 3 3 2 3 7 6 10 16 11 12 12 11 12 9 7 8 7 8
22 21 20 18 16 16 16 17 17 17 17 17 18 15 12 12 9 6 4 2 1 1 1 1 2 1 3 7 7 5 5 9 10 8 12 17 17 15 15 11 9 14 16 18 18 13 7 3 2 4 5 4 3 5 5 1 2 1 1 1 2 2 3 3 3 4 6 4 1 0 1 3 2 3 5 7 6 14 12 11 12 11 10 7 8 9 8 8
22 21 19 18 16 15 15 16 16 17 19 19 19 19 15 12 9 4 1 1 2 0 1 1 1 1 4 6 5 6 6 9 10 8 11 16 17 17 16 10 6 7 6 8 9 6 2 0 1 3 3 4 3 4 3 3 4 3 4 3 1 2 3 3 5 6 7 5 3 2 3 3 3 4 5 7 5 5 10 11 11 11 9 7 9 9 8 9
22 21 19 18 15 14 15 16 17 19 20 20 20 19 14 8 4 1 3 3 2 1 2 2 2 1 4 6 8 8 4 8 10 7 9 12 12 12 13 10 5 4 2 2 4 3 2 1 1 2 3 5 6 7 7 6 8 8 7 4 3 3 2 3 4 5 7 6 3 3 3 2 3 3 3 5 7 5 7 11 9 10 9 8 9 8 8 8
21 21 20 18 15 15 14 16 18 20 21 21 21 16 6 3 4 2 1 2 4 6 5 3 6 3 6 7 7 5 3 6 5 5 7 8 6 5 6 6 2 3 3 3 3 2 3 2 3 5 6 8 10 12 9 7 9 8 5 3 4 4 2 3 5 6 6 5 2 2 3 2 3 2 2 3 4 6 3 12 12 10 8 8 10 9 8 8
21 21 20 18 16 15 14 16 17 19 20 21 19 9 0 1 1 3 3 3 8 10 9 8 10 8 11 10 10 8 2 1 1 3 8 7 5 2 1 3 3 3 4 4 2 1 3 4 7 9 10 11 11 10 9 8 9 7 4 4 4 3 3 3 5 6 2 3 3 4 3 2 3 1 2 2 1 4 1 8 12 12 10 9 11 10 9 8
21 21 20 18 16 14 14 15 16 19 19 18 13 3 4 6 4 3 4 4 9 9 11 10 9 9 14 17 21 16 2 1 4 4 7 6 4 3 2 2 5 4 4 3 1 1 2 5 12 13 11 11 7 7 11 11 9 6 4 4 4 3 4 5 5 6 3 3 4 7 4 3 3 1 4 2 1 3 3 1 5 10 11 10 11 10 9 9
21 21 21 18 15 14 13 14 16 17 15 13 9 6 10 15 15 12 5 3 9 6 6 7 7 6 9 14 17 11 2 3 3 5 6 7 3 4 3 3 5 5 3 4 4 3 4 9 14 13 9 9 7 8 12 10 8 7 5 4 4 5 5 2 4 7 5 2 4 6 4 2 3 2 5 1 1 4 3 3 3 5 8 10 11 10 10 11
21 22 21 18 16 13 13 15 14 11 11 14 14 13 18 23 21 16 4 1 6 6 5 8 7 4 9 11 9 5 3 4 4 4 8 9 4 3 4 4 5 4 4 7 7 6 9 11 8 8 8 9 7 8 11 7 5 7 8 6 6 9 7 4 7 8 6 2 3 5 5 1 1 3 5 2 1 4 3 2 3 2 3 7 11 10 12 13
21 21 21 19 15 12 14 14 6 5 13 16 15 17 24 23 17 10 0 1 4 4 4 5 5 4 10 9 5 5 3 3 5 5 8 10 6 3 3 3 4 5 7 8 7 7 12 11 5 6 9 8 6 8 11 8 5 5 8 9 11 12 9 10 12 9 4 2 4 3 4 2 2 4 6 3 2 4 2 2 4 1 2 5 9 9 12 13
21 21 21 20 15 13 12 7 3 10 15 12 12 21 24 20 13 4 2 3 3 4 2 1 3 4 6 4 4 3 3 2 6 8 10 11 9 5 1 2 1 5 7 6 5 3 8 10 7 9 10 9 7 7 9 9 7 4 8 11 11 11 13 15 14 8 3 3 4 3 2 2 2 3 7 5 3 5 3 3 5 3 2 5 7 8 11 12
21 20 20 19 16 14 8 4 9 13 8 7 18 24 22 21 16 5 1 4 3 3 2 1 1 1 3 5 4 4 2 3 2 7 11 12 8 4 2 4 2 4 3 1 3 4 7 9 7 9 10 8 6 6 7 9 7 4 9 13 14 14 15 16 12 5 3 4 4 3 0 3 3 5 6 6 5 6 6 5 6 5 3 4 6 8 12 13
21 20 19 18 16 13 8 8 12 9 5 12 23 23 21 24 18 3 3 2 1 2 1 2 0 1 2 3 4 3 3 2 2 3 9 12 8 5 3 6 3 5 4 1 4 6 6 8 8 8 7 5 5 8 8 10 6 3 8 13 13 13 13 12 7 4 3 5 3 4 2 3 2 3 4 5 6 8 9 9 8 7 5 4 5 8 12 13
20 20 19 17 15 12 9 9 10 7 10 18 23 23 22 19 11 4 4 2 1 2 1 0 1 2 2 1 2 3 3 1 2 4 4 8 6 3 4 6 4 6 6 4 5 7 6 7 9 7 5 5 7 10 8 10 7 5 10 10 9 11 9 6 4 3 3 2 3 7 5 2 2 3 5 6 8 10 10 9 8 7 6 5 5 7 10 11
19 19 18 16 13 9 9 12 11 8 12 17 22 24 18 10 5 5 2 1 1 3 1 1 0 2 2 1 2 4 3 2 3 2 1 2 1 2 2 3 2 4 5 3 4 8 8 5 3 4 4 5 5 4 3 11 15 14 13 9 9 7 4 4 3 3 3 2 3 9 9 3 1 4 7 7 8 11 10 7 8 8 6 6 5 5 9 10
19 18 17 15 11 8 6 8 8 7 11 17 23 21 10 4 4 4 1 1 2 3 1 1 2 3 5 4 3 3 3 4 2 3 2 1 3 1 1 2 1 2 4 4 4 6 5 5 2 2 3 4 5 4 5 13 18 15 9 6 7 4 3 4 2 3 2 3 3 9 11 5 2 3 8 8 5 8 11 9 11 11 9 7 6 5 7 10
18 16 17 15 13 11 10 8 8 11 15 19 19 11 4 4 3 1 2 2 1 2 2 2 3 3 6 7 5 4 2 3 3 4 3 2 1 2 3 3 2 1 3 3 3 4 4 3 3 2 2 4 6 4 5 9 12 10 8 6 5 2 2 2 1 0 2 4 2 8 10 3 3 4 8 11 7 7 10 10 11 12 11 9 8 6 6 8
16 15 16 14 13 15 16 14 15 16 17 17 12 4 5 4 1 3 3 2 2 3 2 3 5 5 5 5 4 5 4 4 4 3 3 5 3 3 5 6 5 3 2 2 3 4 3 4 3 1 3 0 5 5 3 5 8 10 9 6 4 3 2 2 2 1 2 3 2 5 7 2 3 3 7 12 12 9 9 10 10 12 13 11 9 8 6 8
14 14 14 13 13 16 16 15 16 16 15 12 6 4 5 3 2 4 4 3 3 2 0 2 4 4 4 4 4 5 4 3 4 4 3 4 3 3 4 4 5 5 2 1 3 1 1 3 4 3 4 1 3 5 6 7 7 7 7 6 4 4 4 4 4 2 2 1 2 1 3 3 2 2 5 9 11 10 9 9 10 10 11 10 8 7 7 8
12 11 11 12 13 15 13 12 14 14 9 6 5 4 3 1 3 3 3 4 3 4 4 5 1 1 2 4 4 4 3 2 4 4 2 2 3 3 2 3 6 4 1 0 3 2 2 3 7 6 3 4 3 2 6 7 4 3 5 5 2 5 4 3 3 4 4 2 1 1 3 3 3 3 3 5 8 11 10 10 11 11 10 9 8 8 7 8
9 8 8 9 13 13 10 9 10 7 1 5 5 3 1 3 3 2 4 4 2 3 6 7 4 2 3 3 1 1 2 2 3 2 1 2 1 1 1 3 3 4 3 2 1 1 0 3 6 4 1 5 7 4 5 7 3 1 3 5 5 5 6 5 2 3 5 3 1 2 2 2 1 3 3 6 8 11 12 12 13 12 11 9 9 9 7 7
8 6 5 8 12 11 8 8 6 6 4 5 4 1 3 4 3 3 4 4 4 4 3 3 3 1 2 2 1 2 2 2 1 3 1 2 2 2 1 4 3 3 3 1 0 1 1 4 7 5 7 8 7 4 4 4 5 4 2 5 4 1 4 4 4 2 2 2 1 2 2 2 1 1 2 6 8 11 13 13 12 12 12 11 10 10 8 7
9 5 5 10 12 11 9 7 7 8 5 4 1 3 3 3 4 5 5 4 3 2 4 1 2 1 1 2 3 3 3 2 0 2 2 2 1 3 2 3 5 4 4 2 0 1 0 3 6 3 7 6 0 5 1 3 0 4 4 3 1 2 1 1 3 3 1 1 1 3 2 2 3 3 4 7 9 11 13 12 13 14 14 13 11 11 10 7
7 3 4 9 10 10 11 10 8 6 4 2 1 3 2 3 8 10 7 2 2 2 2 2 2 1 1 0 2 3 1 3 2 2 2 2 0 3 5 4 5 7 8 5 1 2 1 2 3 6 3 1 3 3 2 4 4 1 0 2 1 3 3 2 3 4 3 3 2 1 2 3 4 3 5 8 9 10 12 11 12 13 14 13 11 10 10 7
2 3 3 7 5 8 11 12 6 4 2 1 2 3 3 4 8 9 6 3 1 1 0 2 2 3 3 1 4 5 1 3 3 2 2 1 1 2 4 4 5 6 7 7 5 3 2 3 1 7 6 1 2 1 5 6 2 2 0 1 1 1 1 1 1 2 4 4 2 2 1 4 4 3 4 7 7 9 11 10 9 10 11 11 9 8 7 6
2 3 3 4 4 8 14 10 2 1 2 3 3 3 5 5 5 5 6 7 3 2 1 1 1 1 3 3 6 5 4 2 2 3 3 2 3 2 1 1 2 4 4 7 6 4 2 3 2 4 4 2 3 4 4 5 5 6 4 4 4 3 1 1 3 3 2 4 4 5 2 4 4 3 4 5 6 6 8 9 7 8 10 9 9 8 5 3
2 0 5 10 6 14 16 4 3 3 2 4 3 4 6 6 5 3 5 7 5 1 1 2 1 2 3 4 4 4 3 4 4 3 3 2 3 2 1 1 2 2 4 3 3 3 0 2 2 2 3 4 7 6 3 2 1 4 3 2 3 4 4 4 3 4 1 3 2 3 2 3 4 5 5 0 4 4 5 7 7 7 8 9 9 5 3 7
2 3 10 16 8 13 10 2 3 0 3 6 5 7 8 7 4 1 3 4 5 3 3 3 2 3 3 2 3 4 3 4 4 3 2 2 2 1 2 5 5 3 4 3 3 3 1 2 2 2 5 5 7 6 6 6 6 3 2 3 1 3 5 6 4 3 3 2 1 3 2 3 4 6 6 5 7 7 5 2 4 6 6 7 7 6 8 10
1 4 7 9 5 7 4 1 3 3 5 5 5 7 6 3 2 1 2 2 2 2 3 3 2 3 1 1 2 3 2 3 2 2 2 2 2 3 5 7 5 3 2 1 1 2 2 1 2 3 4 6 7 8 8 7 6 3 3 6 6 2 1 3 1 3 3 1 1 4 2 3 4 6 8 9 9 10 9 7 4 3 4 6 8 7 7 8
2 2 4 5 4 4 3 4 4 3 5 5 7 7 4 3 2 1 2 1 1 1 2 3 3 3 1 3 4 4 3 3 1 2 3 3 2 3 7 7 3 3 1 3 2 1 1 1 2 4 3 2 2 3 3 4 4 3 4 7 10 9 5 3 2 4 3 3 4 4 2 1 5 9 12 11 10 10 9 8 8 6 4 3 4 6 7 9
2 0 3 5 3 0 1 2 1 1 4 4 6 5 1 2 3 2 3 2 2 2 2 2 3 4 3 4 5 5 7 6 3 3 4 4 4 3 7 8 5 3 3 3 4 3 3 2 2 5 5 3 4 6 5 1 2 3 7 12 12 12 10 6 4 4 4 2 5 4 1 3 8 11 11 10 9 8 7 7 8 7 6 5 2 0 3 5
1 0 1 3 3 3 4 4 4 3 5 4 4 4 0 1 3 2 2 1 1 2 3 1 3 4 3 3 4 3 5 7 6 5 4 4 4 4 6 6 6 8 7 5 6 3 5 4 3 2 2 2 1 5 3 5 6 8 11 13 14 15 15 12 7 2 3 5 5 4 4 7 7 8 9 9 8 7 7 7 6 5 5 5 5 6 6 4
1 1 1 2 1 1 2 4 4 7 9 6 3 2 2 3 3 1 1 1 1 3 2 2 5 6 1 4 5 2 4 5 5 4 3 4 4 5 7 6 5 9 7 4 4 3 6 2 4 3 5 8 13 16 13 10 8 10 13 13 15 17 18 16 11 7 6 7 4 2 8 10 5 6 8 8 7 7 7 6 5 4 4 5 6 7 7 7
1 2 2 2 1 2 3 5 5 7 8 4 1 2 2 4 5 3 2 3 4 5 4 2 7 7 2 6 7 3 3 3 2 4 2 3 3 2 4 4 5 7 6 4 4 3 5 2 4 3 6 9 14 15 10 8 11 13 14 13 14 17 17 15 13 12 11 10 6 6 12 11 5 5 7 6 5 6 5 6 6 6 5 5 5 5 4 5
2 2 3 3 3 3 4 4 5 5 5 3 3 3 2 3 3 3 3 4 2 3 4 4 8 7 4 6 7 3 3 6 4 2 3 4 3 2 1 1 3 5 5 3 3 3 4 2 4 4 5 4 9 10 5 6 15 15 12 12 14 15 15 12 10 9 9 7 6 9 13 9 5 5 6 6 6 7 8 9 8 8 7 6 4 3 2 1
5 5 3 1 2 3 3 4 4 3 3 3 2 1 3 3 1 0 3 3 3 3 2 4 7 7 6 9 9 3 1 4 4 2 4 3 1 1 1 2 1 2 5 3 2 3 4 2 4 5 5 2 5 8 2 3 16 17 12 12 13 12 12 9 8 8 6 5 8 11 9 5 5 5 7 8 9 10 11 10 9 8 8 7 6 4 3 3
8 6 3 1 1 3 4 3 4 3 2 3 3 4 4 3 2 4 2 4 5 5 3 5 8 5 4 7 7 4 3 3 3 1 2 2 1 0 1 3 2 0 1 1 2 1 2 3 3 4 4 3 5 6 6 2 11 10 6 7 10 11 11 11 11 11 8 5 6 6 4 3 4 5 8 9 11 11 11 10 9 8 7 8 8 6 4 4
Wind_Direction
357 355 354 354 354 352 350 347 345 344 344 346 347 347 345 341 337 335 333 333 336 336 336 334 331 327 326 337 345 344 336 323 314 293 242 260 252 198 179 171 175 185 183 178 194 191 185 196 200 193 188 177 153 152 172 148 142 126 55 26 50 59 260 312 254 6 10 146 170 193 183 211 148 130 179 106 106 138 129 131 127 112 112 125 134 138 139 141
359 357 356 357 357 356 355 350 348 349 348 350 351 348 344 338 335 335 334 333 335 336 337 336 335 333 337 350 354 346 336 323 307 279 244 243 200 187 188 171 166 184 190 193 200 197 188 193 193 185 184 187 156 145 167 143 125 102 67 55 42 193 195 179 145 54 1 317 189 228 202 230 177 148 170 148 140 139 128 133 121 116 124 129 136 138 139 140
360 359 359 358 359 359 359 356 356 354 350 352 350 346 342 337 333 332 331 331 333 335 337 337 338 339 351 360 0 351 331 325 302 268 245 203 190 186 188 174 165 177 188 195 200 203 205 205 189 175 190 223 168 146 159 87 65 13 120 202 187 202 199 173 162 139 184 223 77 275 277 250 204 150 165 153 139 143 143 143 132 131 139 141 141 139 140 143
360 0 360 360 1 359 359 358 357 353 350 347 343 341 340 337 332 328 327 328 330 333 335 339 342 346 3 6 2 352 327 332 298 243 95 146 189 185 186 175 170 184 192 199 205 212 227 263 234 201 208 213 188 148 135 156 222 255 209 223 190 196 199 172 173 142 153 140 112 126 318 277 254 154 156 154 140 151 158 150 143 143 145 144 143 142 145 147
0 360 359 360 360 358 357 355 353 350 346 341 339 337 336 337 331 325 321 323 326 330 333 338 346 354 4 2 1 349 340 60 255 236 121 102 166 183 187 179 182 194 197 202 210 219 240 273 277 245 229 176 182 145 117 177 193 225 226 242 238 226 190 140 147 126 133 121 109 123 137 247 272 176 148 155 152 166 158 145 143 144 145 146 146 145 147 148
360 359 359 359 359 358 356 353 352 349 344 340 338 336 336 336 330 323 318 319 324 327 332 338 351 3 359 1 2 347 17 150 251 238 174 112 139 179 182 178 184 191 199 200 198 206 232 247 233 231 213 125 168 139 126 177 176 181 247 227 216 249 80 111 119 119 140 130 127 158 159 216 289 114 137 148 156 152 139 136 140 143 142 144 145 145 147 151
0 360 359 359 359 358 356 353 351 348 345 343 340 339 338 335 329 324 318 317 324 327 332 344 359 5 360 16 24 13 71 263 255 215 202 150 146 174 177 179 182 186 196 195 189 189 199 210 220 222 155 115 167 150 144 159 153 179 247 202 170 188 94 98 106 107 104 116 137 187 164 349 22 20 147 134 139 133 130 132 138 142 141 144 145 149 153 156
0 360 358 359 359 356 354 351 349 348 347 344 340 340 340 335 329 325 323 322 325 331 336 352 11 3 2 25 45 2 268 248 227 185 194 187 168 175 176 181 185 186 191 194 191 180 188 210 228 229 163 124 152 153 162 136 126 189 166 56 129 107 94 89 90 92 77 85 133 154 97 290 106 27 307 139 136 131 131 133 137 143 145 148 150 154 157 161
360 358 357 358 357 356 354 350 348 347 347 345 342 341 342 339 335 333 331 328 332 340 342 356 13 12 13 8 311 355 280 226 195 183 192 197 185 180 178 182 189 188 190 202 201 187 190 205 221 218 141 132 152 151 182 167 127 180 103 79 138 110 93 88 86 80 76 68 351 73 24 310 101 80 348 125 137 133 134 136 139 149 151 154 157 158 162 165
358 357 356 356 356 356 353 349 347 348 348 347 347 347 348 348 347 347 342 340 345 347 352 9 15 24 23 360 84 25 280 209 185 189 182 196 192 184 185 191 192 187 188 203 208 207 206 217 239 224 112 140 169 159 192 182 88 106 99 103 113 100 96 93 94 87 93 61 18 70 86 315 355 80 39 275 149 134 136 139 142 149 152 157 159 161 164 167
357 357 355 354 355 355 353 349 347 350 350 348 351 351 354 358 358 358 356 356 355 354 4 19 26 35 35 45 100 228 226 155 156 187 166 192 199 192 192 197 195 187 185 194 212 216 214 227 239 250 219 145 141 123 121 105 96 88 62 85 101 99 96 85 81 75 96 59 35 71 90 341 331 61 172 197 156 136 140 144 146 149 152 158 159 161 164 167
356 355 354 353 352 353 351 347 347 352 352 351 354 355 359 3 4 6 3 3 360 359 4 20 57 55 34 60 190 228 208 150 301 249 185 171 188 198 193 193 197 192 188 188 218 221 221 230 236 253 242 139 124 147 89 84 97 82 28 34 123 112 84 68 62 53 72 55 51 84 74 350 284 213 190 178 144 137 142 146 150 152 153 158 159 163 163 163
354 353 353 351 350 351 349 346 348 352 352 352 355 356 1 2 4 6 4 5 1 359 0 23 74 54 38 325 236 251 272 286 295 254 206 167 124 176 188 190 202 203 200 202 223 232 236 244 243 219 174 119 91 145 103 76 92 92 54 5 222 107 63 54 68 90 86 22 16 95 115 237 244 166 190 196 141 140 144 150 158 154 155 158 162 166 163 159
352 352 351 349 348 349 347 345 346 349 349 350 353 352 352 356 3 2 360 360 355 2 10 32 93 89 83 267 268 290 300 295 286 237 206 189 159 172 192 198 210 217 213 216 234 247 255 262 255 215 148 116 121 124 93 65 57 89 103 220 292 76 84 70 94 121 103 321 356 61 129 201 235 116 143 274 151 144 148 158 162 155 156 161 166 164 159 157
351 351 350 348 347 346 345 343 343 344 343 344 348 346 339 340 350 353 354 353 347 353 18 55 136 112 36 281 282 307 301 284 265 228 207 197 184 182 201 203 214 225 223 226 240 253 263 270 258 155 100 118 119 105 60 51 28 51 111 251 341 63 134 117 216 75 113 172 42 67 160 187 5 121 151 225 176 147 152 163 159 157 160 163 165 159 158 156
350 350 349 347 345 345 342 339 339 337 336 338 341 341 332 321 327 341 332 322 334 337 72 65 122 144 359 286 292 310 274 254 259 234 215 207 195 195 207 207 216 227 230 235 243 253 264 276 208 132 128 122 111 104 83 48 357 24 121 262 313 111 118 128 234 63 131 147 65 131 198 136 11 114 139 233 185 149 155 166 155 159 164 160 157 158 156 150
350 349 349 346 344 343 338 336 335 329 329 334 336 338 329 310 308 323 313 299 329 262 148 16 344 74 267 280 298 304 240 234 253 232 216 217 207 205 204 204 224 229 234 242 247 251 255 262 182 156 126 112 118 114 89 31 260 257 140 225 265 152 132 156 163 153 166 165 100 207 122 97 347 39 48 319 211 155 160 166 157 161 162 154 153 156 153 149
349 348 347 345 342 339 335 332 328 323 327 333 337 337 325 308 304 303 235 138 97 6 299 284 338 50 277 282 287 276 250 233 236 217 214 219 215 211 198 194 218 221 233 253 256 246 216 312 171 158 120 119 144 134 130 203 198 185 185 180 214 170 151 168 157 164 168 135 109 102 88 78 1 15 45 353 318 169 168 163 157 162 155 151 156 152 150 153
347 347 346 343 338 336 333 328 324 324 329 332 335 335 323 313 327 50 145 125 102 294 295 240 172 109 278 275 279 278 241 200 209 211 215 211 217 218 197 194 198 176 171 255 267 244 180 64 76 153 172 168 172 179 183 185 176 180 187 164 152 159 156 164 147 162 150 104 87 102 95 101 54 4 43 30 332 304 181 159 152 162 153 151 161 152 152 157
345 345 344 340 336 335 332 328 328 328 330 331 335 339 335 352 14 19 134 166 207 236 270 229 183 223 277 271 286 296 152 167 191 199 206 198 206 219 187 183 162 146 162 175 235 256 146 153 211 202 201 198 191 193 190 175 173 172 164 149 151 144 145 156 144 161 148 100 91 102 76 85 78 359 13 47 322 318 186 162 157 163 155 154 164 157 156 164
343 343 342 339 336 336 334 331 329 328 330 331 336 349 115 168 39 340 331 254 235 229 240 231 195 221 264 267 278 280 201 143 303 222 214 202 169 148 196 165 133 215 215 176 218 314 124 181 228 217 209 211 200 191 189 176 168 160 145 144 147 151 131 97 125 155 145 68 157 158 115 110 90 313 312 30 326 325 319 167 163 165 158 158 168 162 161 170
343 342 340 339 337 337 334 331 329 326 327 330 339 345 250 271 263 313 354 293 274 236 223 237 216 229 257 266 271 269 239 99 306 271 216 192 144 155 232 153 141 226 238 166 212 319 162 221 231 221 210 213 211 186 184 179 162 149 153 150 145 152 103 70 113 122 23 359 164 159 145 125 88 292 286 2 287 282 302 223 180 171 160 161 172 165 163 170
342 339 340 341 338 337 332 330 326 321 325 330 324 273 288 307 297 302 331 280 289 267 219 229 225 236 254 267 269 256 194 171 248 273 207 167 149 173 174 159 179 219 232 182 188 172 204 235 230 224 211 205 212 195 184 174 161 159 165 152 151 166 140 129 153 107 50 347 177 153 129 77 65 309 282 241 222 278 273 277 265 184 161 169 176 165 164 169
341 338 339 339 337 337 329 325 322 319 331 322 300 293 320 325 307 299 319 237 284 282 243 217 207 223 235 251 257 204 180 193 191 243 202 162 139 165 170 181 191 219 231 202 191 190 227 241 224 219 221 206 197 196 189 170 162 174 168 154 163 177 163 134 141 116 73 69 171 134 103 45 166 201 256 217 172 276 282 291 277 187 144 179 180 165 165 167
339 337 337 337 338 334 326 324 315 324 331 310 299 325 337 335 317 296 317 49 290 287 268 215 187 224 231 231 218 175 168 211 208 210 191 175 161 151 198 196 168 222 235 213 198 211 241 249 222 221 232 213 193 198 196 174 150 171 178 179 178 171 141 119 133 130 99 145 204 168 115 214 223 187 225 222 201 253 282 316 274 241 113 183 184 171 169 165
338 335 335 337 333 327 327 324 305 327 325 304 318 338 337 340 338 296 134 40 304 285 290 186 155 220 230 200 179 133 81 256 227 185 181 198 191 147 203 264 199 229 226 210 204 208 243 242 211 217 229 216 205 212 200 168 140 172 193 180 162 141 129 138 148 143 136 159 197 214 133 159 241 223 220 215 216 244 258 271 263 247 155 182 186 176 171 164
336 332 334 335 329 329 327 287 309 323 317 313 337 341 337 340 337 297 125 39 319 287 269 225 87 190 210 188 159 93 80 280 257 169 184 200 192 124 179 252 303 252 238 190 231 232 234 231 200 202 221 210 197 224 205 152 136 197 189 163 145 137 143 154 154 140 141 123 138 220 127 112 205 220 204 195 206 236 244 245 251 242 202 189 191 183 175 167
333 330 331 332 328 326 315 295 309 316 311 331 340 343 339 336 335 336 100 54 335 319 257 218 162 219 241 185 145 128 207 238 47 208 206 196 184 112 181 233 244 258 278 245 250 264 238 222 202 192 202 191 192 223 199 140 140 208 162 150 144 139 144 151 142 119 128 120 136 224 210 117 209 217 164 173 206 223 226 228 236 234 215 200 196 188 180 171
331 328 326 330 327 318 313 305 298 298 321 334 340 339 335 336 348 59 85 72 92 279 257 100 103 241 289 138 174 230 244 150 172 226 211 199 204 117 177 222 229 269 273 197 222 272 261 223 203 185 179 191 207 219 190 132 121 96 99 109 108 111 119 117 111 105 102 101 186 206 198 142 195 204 162 179 211 215 214 218 226 230 217 204 202 189 183 175
328 323 320 325 323 311 314 304 288 299 322 327 334 336 335 343 35 70 41 42 228 260 228 78 253 195 130 82 264 255 248 234 201 181 159 208 303 74 188 219 210 274 287 239 237 258 263 264 204 174 185 193 187 201 150 116 115 100 88 88 85 88 88 80 83 87 75 327 223 187 191 187 190 204 191 197 207 197 194 204 216 226 221 204 204 194 183 178
324 318 314 317 311 295 301 296 289 315 319 321 332 338 346 15 68 83 67 251 263 272 225 164 229 173 150 172 247 252 243 250 195 128 176 26 39 37 309 330 245 306 327 316 288 268 286 326 318 217 197 158 114 66 71 111 120 109 104 121 103 68 18 54 49 42 89 267 234 174 184 198 225 220 209 214 210 178 182 193 203 214 219 206 203 199 186 180
320 312 306 306 296 271 253 259 290 307 309 322 336 347 43 44 30 115 238 309 318 245 218 194 207 204 180 182 221 225 208 247 205 154 163 137 124 203 199 205 187 13 327 298 300 307 312 280 257 269 232 136 107 85 70 109 123 113 122 134 106 82 8 77 187 282 192 258 260 166 171 191 255 229 207 211 210 180 184 192 195 206 214 209 202 195 188 183
317 307 300 296 285 266 255 267 287 294 307 331 347 23 82 60 346 253 259 295 256 214 189 185 199 209 186 169 228 218 191 233 219 185 176 148 161 227 229 221 175 138 246 274 331 334 314 274 283 339 279 255 112 135 112 118 140 136 146 152 126 135 141 164 205 204 201 270 324 158 164 206 273 247 204 201 200 188 187 193 195 203 210 210 203 190 186 187
317 304 297 289 276 263 259 269 277 285 311 343 12 63 60 52 248 268 272 268 281 273 235 208 191 192 195 189 207 185 171 242 208 180 195 139 135 243 261 255 208 181 203 306 311 269 152 274 265 207 226 239 128 161 144 134 147 155 161 146 135 164 161 167 193 177 170 207 19 118 182 199 217 248 212 194 190 185 185 193 197 206 211 209 203 189 184 190
322 305 297 285 271 261 257 265 272 281 308 12 53 64 63 249 256 290 271 264 308 327 324 313 282 149 274 256 219 179 141 199 190 173 212 160 160 214 237 252 223 200 160 214 260 227 158 239 244 231 203 155 179 195 120 112 125 188 166 128 159 204 160 135 170 151 134 127 115 196 238 213 190 245 229 175 180 187 189 191 194 206 211 204 203 196 186 191
329 316 304 281 269 261 256 264 265 256 205 73 54 44 158 230 239 240 262 267 299 319 333 335 351 28 302 303 272 219 95 115 175 144 304 259 184 184 229 270 211 160 172 218 257 299 356 275 260 254 166 174 197 195 124 126 149 200 151 167 216 199 139 111 95 100 99 105 176 202 262 290 282 270 225 175 181 189 191 192 192 200 204 200 203 201 190 190
337 325 308 279 265 255 257 265 233 174 118 78 77 216 239 247 231 216 260 297 317 329 19 2 328 325 301 331 294 218 115 61 176 124 37 308 334 331 328 330 344 118 156 176 151 219 181 291 274 203 181 214 212 158 131 145 149 133 163 223 234 95 89 100 107 97 91 110 254 246 251 269 259 262 201 171 176 183 186 188 188 193 197 200 205 203 195 189
335 328 300 267 246 241 257 249 178 139 90 58 85 254 243 237 263 265 268 298 323 1 62 77 259 287 346 356 304 258 123 92 277 113 89 69 324 304 8 2 324 357 34 64 209 277 106 313 299 217 183 222 318 97 134 305 85 144 183 241 67 89 359 26 122 159 172 153 272 295 285 243 219 222 187 176 181 179 178 181 185 190 193 197 202 202 198 188
340 16 308 244 221 237 244 210 161 111 59 36 243 252 224 236 279 279 273 311 26 52 49 254 241 26 310 248 329 318 112 150 182 132 115 111 238 317 15 5 312 347 16 41 66 307 16 91 313 317 293 237 42 73 189 268 325 23 214 336 42 145 174 182 163 156 146 163 197 303 317 258 236 238 203 191 187 175 172 180 188 192 194 196 195 198 199 188
6 34 282 238 234 241 207 173 136 72 70 220 220 245 289 287 276 274 282 332 26 132 283 277 341 9 284 309 22 340 298 160 154 118 104 100 102 22 6 340 320 346 21 43 41 343 5 84 352 318 330 88 148 183 188 198 169 76 5 273 234 238 181 155 228 153 134 141 153 142 265 266 259 270 231 205 187 178 177 178 184 191 194 196 193 194 197 186
20 17 255 292 311 196 165 143 128 116 185 254 241 252 287 283 272 295 334 349 350 188 195 292 36 9 291 12 24 335 316 28 54 76 65 47 102 100 310 297 332 345 21 35 20 348 358 52 34 331 343 5 265 256 231 221 177 145 175 198 184 197 166 76 297 287 121 126 160 160 177 269 282 321 285 215 176 178 178 170 176 185 186 190 197 200 196 180
57 93 248 316 314 166 143 116 235 161 185 252 239 245 263 263 272 336 5 2 6 26 20 11 45 25 358 26 24 333 344 19 15 64 90 103 119 149 257 28 36 38 69 50 332 304 357 77 56 334 298 288 277 279 290 286 173 141 169 196 168 162 138 138 219 266 50 88 140 117 95 272 299 345 332 298 129 143 163 168 174 174 178 187 189 175 75 41
91 253 274 312 293 167 135 357 270 338 252 244 249 255 257 256 259 354 32 19 10 3 5 1 28 41 20 19 11 348 20 45 32 62 108 89 68 281 2 44 39 39 65 52 326 311 349 62 46 327 304 305 303 320 10 37 45 55 338 335 347 193 176 165 185 190 123 109 115 81 64 277 310 348 357 37 68 68 61 95 159 163 172 171 147 105 72 60
299 267 278 314 280 183 142 208 236 272 260 259 272 267 279 282 213 132 53 35 6 359 10 342 5 47 343 316 7 338 8 72 55 41 81 77 357 327 26 48 56 57 56 139 196 309 335 37 57 37 358 344 347 351 358 8 23 25 327 350 6 348 181 152 87 77 84 338 96 110 127 257 304 359 18 31 46 53 40 28 52 118 137 133 132 129 122 113
322 276 270 296 269 212 190 183 188 238 269 297 292 284 320 324 254 119 65 13 284 110 57 321 336 33 343 352 12 352 15 75 126 2 34 27 332 357 27 26 49 99 142 214 180 93 81 91 91 91 76 25 15 343 323 332 337 334 4 35 31 15 30 106 98 73 66 337 25 85 141 264 351 14 23 21 29 42 33 26 33 35 50 88 150 165 159 149
14 358 297 312 321 17 247 247 114 237 272 295 287 281 322 327 309 6 55 12 324 45 48 328 352 24 13 24 30 13 17 28 38 49 41 6 332 352 19 12 14 35 15 354 14 71 100 36 66 125 143 163 191 235 243 185 63 41 43 50 46 27 30 71 98 102 126 92 42 27 28 60 22 14 21 15 19 34 29 30 36 26 24 20 349 182 144 153
40 277 353 347 332 357 351 345 19 345 282 248 248 272 334 59 330 344 33 9 338 31 24 2 7 350 334 42 54 15 9 20 27 38 37 16 351 336 358 12 14 7 11 18 13 58 95 21 355 103 130 154 272 306 342 66 72 71 63 57 58 53 48 53 58 100 151 104 58 1 35 66 35 13 22 13 9 25 28 31 37 29 19 14 10 11 17 38
11 291 14 32 286 294 347 323 327 322 293 245 217 297 1 27 354 316 359 343 2 39 44 4 354 343 344 93 83 14 4 29 22 360 8 26 10 350 354 353 358 7 14 27 16 63 104 46 325 3 29 24 19 19 40 73 70 64 67 63 63 65 63 60 53 46 69 88 99 81 69 66 39 22 32 23 22 36 37 32 31 32 22 24 42 41 32 42
14 345 324 356 313 227 257 281 302 317 298 260 45 3 21 37 3 331 42 41 4 30 77 44 352 350 46 101 98 70 33 69 18 333 359 34 8 14 20 344 332 1 20 33 15 60 107 39 328 26 43 37 44 42 42 71 76 65 59 58 61 65 70 72 67 64 74 88 101 83 68 59 35 35 42 39 46 53 48 35 24 22 21 26 53 67 71 84
14 326 323 346 329 276 274 303 328 326 310 332 15 321 324 44 6 322 40 65 25 14 53 41 5 357 23 69 80 98 153 151 145 359 31 44 4 342 60 301 290 345 10 27 5 29 79 3 328 60 64 35 71 70 17 46 77 70 51 50 57 58 57 58 62 65 70 71 55 53 59 47 15 37 55 48 47 46 36 28 19 9 2 9 36 58 64 121
319 284 305 346 303 313 330 329 333 332 326 348 17 327 345 17 76 22 20 42 95 84 54 59 44 17 13 45 53 35 62 127 126 45 42 71 86 243 205 183 181 4 5 24 16 19 59 16 337 61 74 335 62 90 168 93 74 63 44 45 54 57 57 50 44 48 58 61 45 43 44 16 345 30 54 42 38 43 35 24 19 12 6 8 14 16 2 357
344 310 323 55 228 323 344 326 326 352 340 319 344 357 333 314 79 88 51 355 28 55 64 79 78 55 10 32 32 342 326 81 105 65 45 55 3 20 193 223 222 192 341 68 58 7 77 80 17 52 81 329 16 87 171 148 62 48 360 20 57 70 68 60 45 35 38 58 66 60 43 340 349 46 58 42 38 41 34 26 26 24 23 26 20 16 28 38